Weather History for Valparaiso, FL

Change the Weather History Date:

Sunday, June 16, 2013

  Actual Average Record
Temperature  
Mean Temperature 83 °F -  
Max Temperature 88 °F 89 °F 99 °F (1952)
Min Temperature 78 °F 68 °F 60 °F (1984)
Cooling Degree Days 18    
Growing Degree Days 33 (Base 50)    
Moisture  
Dew Point 76 °F    
Average Humidity 79    
Maximum Humidity 92    
Minimum Humidity 67    
Precipitation  
Precipitation 0.00 in - - ()
Sea Level Pressure  
Sea Level Pressure 30.06 in    
Wind  
Wind Speed 9 mph (SSE)    
Max Wind Speed 14 mph    
Max Gust Speed -    
Visibility 10 miles    
Events      
Averages and records for this station are not official NWS values.
T = Trace of Precipitation, MM = Missing Value Source: NWS Daily Summary

Daily Weather History Graph

Daily Weather History Graph

Search for Another Location

Airport:

Trip Planner

Search our weather history database for the weather conditions in past years. The results will help you decide how hot, cold, wet, or windy it might be!

Date:

Astronomy

Jun. 16, 2013 Rise Set
Actual Time 5:43 AM CDT 7:50 PM CDT
Civil Twilight 5:15 AM CDT 8:17 PM CDT
Nautical Twilight 4:42 AM CDT 8:51 PM CDT
Astronomical Twilight 4:06 AM CDT 9:27 PM CDT
Moon 12:49 PM CDT (6/16) 12:21 AM CDT (6/16)
Length of Visible Light 15h 02m
Length of Day
14h 06m
Waxing Crescent, 50% of the Moon is Illuminated
Jun 16
Waxing Crescent
Jun 16
First Quarter
Jun 23
Full
Jun 29
Last Quarter
Jul 8
New

Hourly Weather History & Observations

Time (CDT) Temp. Heat Index Dew Point Humidity Pressure Visibility Wind Dir Wind Speed Gust Speed Precip Events Conditions
12:55 AM 80.8 °F 87.2 °F 76.6 °F 87% 30.04 in 10.0 mi SSE 6.9 mph - N/A   Scattered Clouds
1:55 AM 80.8 °F 87.4 °F 77.0 °F 88% 30.04 in 10.0 mi SE 9.2 mph - N/A   Mostly Cloudy
2:55 AM 80.6 °F 86.9 °F 76.8 °F 88% 30.03 in 10.0 mi SE 6.9 mph - N/A   Mostly Cloudy
3:55 AM 78.6 °F - 76.3 °F 92% 30.03 in 10.0 mi ESE 5.8 mph - N/A   Partly Cloudy
4:55 AM 80.6 °F 86.8 °F 76.5 °F 87% 30.04 in 10.0 mi SSE 5.8 mph - N/A   Scattered Clouds
5:55 AM 79.9 °F - 76.8 °F 90% 30.06 in 10.0 mi East 4.6 mph - N/A   Mostly Cloudy
6:55 AM 80.1 °F 85.4 °F 75.9 °F 87% 30.06 in 10.0 mi East 6.9 mph - N/A   Mostly Cloudy
7:55 AM 81.9 °F 88.9 °F 75.7 °F 82% 30.10 in 10.0 mi ESE 10.4 mph - N/A   Mostly Cloudy
8:55 AM 84.9 °F 94.5 °F 76.3 °F 75% 30.10 in 10.0 mi ESE 11.5 mph - N/A   Scattered Clouds
9:55 AM 86.4 °F 96.0 °F 75.4 °F 70% 30.09 in 10.0 mi SSE 11.5 mph - N/A   Mostly Cloudy
10:55 AM 88.0 °F 98.5 °F 75.9 °F 67% 30.10 in 10.0 mi South 11.5 mph - N/A   Mostly Cloudy
11:55 AM 86.9 °F 97.8 °F 76.3 °F 71% 30.09 in 10.0 mi SSE 10.4 mph - N/A   Mostly Cloudy
12:55 PM 88.2 °F 99.0 °F 75.7 °F 67% 30.08 in 10.0 mi SSE 11.5 mph - N/A   Mostly Cloudy
1:55 PM 88.0 °F 99.1 °F 76.1 °F 68% 30.06 in 10.0 mi SSE 12.7 mph - N/A   Mostly Cloudy
2:55 PM 88.0 °F 99.6 °F 76.8 °F 69% 30.04 in 10.0 mi South 10.4 mph - N/A   Mostly Cloudy
3:55 PM 86.5 °F 97.8 °F 76.8 °F 73% 30.04 in 10.0 mi SSW 12.7 mph - N/A   Mostly Cloudy
4:55 PM 84.6 °F 94.3 °F 76.6 °F 77% 30.03 in 10.0 mi South 13.8 mph - N/A   Mostly Cloudy
5:55 PM 84.2 °F 93.4 °F 76.5 °F 77% 30.05 in 10.0 mi SSW 11.5 mph - N/A   Mostly Cloudy
6:15 PM 84.2 °F 94.1 °F 77.0 °F 79% 30.02 in 10.0 mi SSW 9.2 mph - N/A   Mostly Cloudy
6:55 PM 84.0 °F 92.2 °F 75.4 °F 75% 30.04 in 10.0 mi SSW 11.5 mph - N/A   Mostly Cloudy
7:55 PM 82.8 °F 90.7 °F 76.1 °F 80% 30.06 in 10.0 mi SSW 10.4 mph - N/A   Mostly Cloudy
8:55 PM 81.9 °F 88.5 °F 75.0 °F 80% 30.04 in 10.0 mi SSW 6.9 mph - N/A   Mostly Cloudy
9:55 PM 81.7 °F 87.8 °F 74.5 °F 79% 30.06 in 10.0 mi South 9.2 mph - N/A   Mostly Cloudy
10:55 PM 81.7 °F 88.5 °F 75.7 °F 82% 30.04 in 10.0 mi South 8.1 mph - N/A   Scattered Clouds
11:55 PM 82.4 °F 89.5 °F 75.2 °F 79% 30.04 in 10.0 mi South 11.5 mph - N/A   Scattered Clouds